Morrisville, VT

2:52 AM EST on December 15, 2019 (GMT -0500)
Morrisville Stowe State

Weather History for KMVL - November, 2019

Change the Weather History Date:

Saturday, November 16, 2019

  Actual Average Record
Temperature  
Mean Temperature 12 °F 35 °F  
Max Temperature 23 °F 44 °F 68 °F (2006)
Min Temperature 0 °F 26 °F 3 °F (1996)
Degree Days  
Heating Degree Days 54 30  
Month to date heating degree days 569 435  
Since 1 July heating degree days 1388 1366  
Cooling Degree Days 0 0  
Month to date cooling degree days 0 0  
Year to date cooling degree days 254 265  
Moisture  
Dew Point 1 °F    
Average Humidity 60    
Maximum Humidity 84    
Minimum Humidity 38    
Precipitation  
Precipitation 0.00 in 0.11 in 1.24 in (2005)
Month to date precipitation 1.02 1.62  
Year to date precipitation 40.05 31.86  
Sea Level Pressure  
Sea Level Pressure 30.58 in    
Wind  
Wind Speed 6 mph ()    
Max Wind Speed 16 mph    
Max Gust Speed 22 mph    
Visibility 10.0 miles    
Events      
T = Trace of Precipitation, MM = Missing Value Source: Averaged Metar Reports

Daily Weather History Graph

Daily Weather History Graph

Search for Another Location

Airport or City:

Astronomy

Nov. 16, 2019 Rise Set
Actual Time 6:47 AM EST 4:22 PM EST
Civil Twilight 6:16 AM EST 4:53 PM EST
Nautical Twilight 5:40 AM EST 5:28 PM EST
Astronomical Twilight 5:06 AM EST 6:03 PM EST
Moon 7:47 PM EST (11/16) 10:43 AM EST (11/16)
Length of Visible Light 10h 37m
Length of Day
9h 34m
Waning Gibbous, 82% of the Moon is Illuminated
Nov 16
Waning Gibbous
Nov 19
Last Quarter
Nov 26
New
Dec 4
First Quarter
Dec 12
Full

Hourly Weather History & Observations

Time (EST) Temp. Windchill Dew Point Humidity Pressure Visibility Wind Dir Wind Speed Gust Speed Precip Events Conditions
12:54 AM 18.0 °F 6.9 °F 3.9 °F 54% 30.42 in 10.0 mi North 9.2 mph 20.7 mph N/A   Scattered Clouds
1:54 AM 15.1 °F 3.3 °F 1.9 °F 56% 30.44 in 10.0 mi NNW 9.2 mph 18.4 mph N/A   Clear
2:54 AM 14.0 °F -0.2 °F 1.0 °F 56% 30.46 in 10.0 mi NNW 12.7 mph - N/A   Clear
3:54 AM 10.9 °F -1.8 °F -0.0 °F 61% 30.49 in 10.0 mi North 9.2 mph - N/A   Clear
4:54 AM 10.9 °F -0.8 °F -0.0 °F 61% 30.51 in 10.0 mi North 8.1 mph - N/A   Clear
5:54 AM 9.0 °F - -0.0 °F 67% 30.55 in 10.0 mi Calm Calm - N/A   Clear
6:54 AM 9.0 °F -0.9 °F -0.0 °F 67% 30.59 in 10.0 mi NNE 5.8 mph - N/A   Clear
7:54 AM 10.9 °F -3.4 °F 1.9 °F 67% 30.61 in 10.0 mi North 11.5 mph - N/A   Clear
8:54 AM 12.0 °F -0.4 °F 3.0 °F 67% 30.63 in 10.0 mi NNE 9.2 mph - N/A   Clear
9:54 AM 16.0 °F - 3.9 °F 59% 30.64 in 10.0 mi Calm Calm - N/A   Clear
10:54 AM 19.0 °F 11.1 °F 1.9 °F 47% 30.63 in 10.0 mi NNE 5.8 mph - N/A   Clear
11:54 AM 19.9 °F 13.4 °F 1.0 °F 44% 30.62 in 10.0 mi North 4.6 mph - N/A   Clear
12:54 PM 21.0 °F 11.4 °F 1.0 °F 42% 30.61 in 10.0 mi NNE 8.1 mph - N/A   Clear
1:54 PM 21.9 °F 14.5 °F -0.0 °F 38% 30.59 in 10.0 mi North 5.8 mph - N/A   Clear
2:54 PM 21.9 °F 13.4 °F -0.0 °F 38% 30.58 in 10.0 mi NNW 6.9 mph - N/A   Clear
3:54 PM 19.9 °F 13.4 °F -0.0 °F 42% 30.59 in 10.0 mi NNW 4.6 mph - N/A   Clear
4:54 PM 18.0 °F 11.1 °F 1.0 °F 48% 30.59 in 10.0 mi North 4.6 mph - N/A   Clear
6:54 PM 10.9 °F - 1.9 °F 67% 30.62 in 10.0 mi Calm Calm - N/A   Clear
7:54 PM 8.1 °F - 1.0 °F 73% 30.62 in 10.0 mi Calm Calm - N/A   Clear
8:54 PM 5.0 °F - 1.0 °F 84% 30.63 in 10.0 mi Calm Calm - N/A   Clear
9:54 PM 3.0 °F - -0.9 °F 84% 30.63 in 10.0 mi Calm Calm - N/A   Clear
10:54 PM 1.0 °F -6.7 °F -2.9 °F 83% 30.61 in 10.0 mi SW 3.5 mph - N/A   Clear
11:54 PM 1.0 °F - -2.9 °F 83% 30.61 in 10.0 mi Calm Calm - N/A   Clear